sat.trackr.live / text

‹ back to catalog

TRANSPORTER-12 OBJECT G

NORAD 62615 · 2025-009G

PAYLOAD ACTIVE UNKNOWN

§ Identity

Operator
Country
TBD
Launch date
2025-01-14
Launch site
AFWTR
Launch vehicle
Mass (kg)
RCS (m²)

External: N2YO · Heavens-Above · Gunter

§ Orbital elements

Epoch: 2026-09-22T05:45:53.038944Z

Period
94.31 min
Inclination
97.3881°
Eccentricity
0.0005723
Mean motion
15.26819051 rev/d
Perigee alt
481.4 km
Apogee alt
489.3 km
Semi-major
6,863.5 km
B*
1.7074e-4
RAAN
344.1675°
Arg perigee
1.2787°
Mean anomaly
358.8466°
Rev number
9,360

§ Raw data

TRANSPORTER-12 OBJECT G1 62615U 25009G   26265.24019721  .00004427  00000+0  17074-3 0  99912 62615  97.3881 344.1675 0005723   1.2787 358.8466 15.26819051 93606

JSON: /api/v1/satellites/62615 · /tle

For live sub-satellite position, see the globe view (requires WebGL).

§ Visibility from observer

Set your observer location to see the next 7 days of passes ≥ 10°. The values pass through the URL so the page stays shareable.

No JS? Fill the form by hand. The geolocation button needs JavaScript.

§ Radio — SatNOGS DB

ModeDescriptionDownlinkUplink
BPSK S-band telemetry 2.243 GHz
FM Telemetry 401.900 MHz

2 transmitters · refreshed weekly from db.satnogs.org